{"data":{"norad_id":48860,"intl_designator":"2021-055A","name":"YAOGAN-30 10A","alt_names":[],"object_type":"PAYLOAD","status":"ACTIVE","operator":null,"country":"PRC","launch_date":"2021-06-18","launch_site_code":"XICLF","launch_vehicle":null,"mission":null,"orbit_class":"UNKNOWN","rcs_meters":null,"size_class":null,"mass_kg":null,"dimensions":null,"purposes":[],"wikipedia_slug":null,"has_3d_model":false,"image_url":null,"decayed_at":null,"tle_current":{"epoch":"2026-09-20T19:09:47.287872Z","epoch_age_seconds":53200,"freshness":"FRESH","line1":"1 48860U 21055A   26263.79846398  .00001413  00000+0  10495-3 0  9992","line2":"2 48860  34.9960 289.3294 0003662 201.3947 158.6608 15.03045824287574","mean_motion":15.03045824,"eccentricity":0.0003662,"inclination_deg":34.996,"raan_deg":289.3294,"arg_perigee_deg":201.3947,"mean_anomaly_deg":158.6608,"bstar":0.00010495,"rev_number":28757,"period_min":95.805462282433,"perigee_km":554.97090272708,"apogee_km":560.05057112961,"semimajor_km":6935.6477369283,"source":"CELESTRAK","updated_at":"2026-09-21T09:00:07.900624Z"}}}